• Em Portugal
  • Lista de países
  • Para 7 dias
  • Temperatura da água
  • Mapas de satélite
  • Mapa do tempo
  • Widgets de tempo
  • user-avatar
    Iniciar Sessão

    Previsão horária em Monaco

    Hoje, 23 Outubro, Terça-feira

    Tempo Temperatura Precipitação Vento Pressão Humidade
    00:00 +14°C° 0 mm 4 m/s 757 mmHg 28%
    01:00 +14°C° 0 mm 4 m/s 757 mmHg 30%
    02:00 +14°C° 0 mm 4 m/s 757 mmHg 31%
    03:00 +14°C° 0 mm 4 m/s 758 mmHg 32%
    04:00 +14°C° 0 mm 4 m/s 758 mmHg 33%
    05:00 +14°C° 0 mm 4 m/s 758 mmHg 33%
    06:00 +14°C° 0 mm 3 m/s 758 mmHg 34%
    07:00 +18°C° 0 mm 3 m/s 758 mmHg 32%
    08:00 +20°C° 0 mm 2 m/s 758 mmHg 30%
    09:00 +24°C° 0 mm 2 m/s 758 mmHg 28%
    10:00 +25°C° 0 mm 2 m/s 758 mmHg 28%
    11:00 +25°C° 0 mm 2 m/s 758 mmHg 29%
    12:00 +26°C° 0 mm 2 m/s 758 mmHg 29%
    13:00 +26°C° 0 mm 2 m/s 757 mmHg 32%
    14:00 +25°C° 0 mm 2 m/s 757 mmHg 36%
    15:00 +24°C° 0 mm 3 m/s 756 mmHg 40%
    16:00 +22°C° 0 mm 3 m/s 756 mmHg 44%
    17:00 +20°C° 0 mm 3 m/s 756 mmHg 49%
    18:00 +18°C° 0 mm 3 m/s 756 mmHg 54%
    19:00 +18°C° 0 mm 3 m/s 755 mmHg 50%
    20:00 +18°C° 0 mm 3 m/s 755 mmHg 45%
    21:00 +18°C° 0 mm 3 m/s 755 mmHg 41%
    22:00 +18°C° 0 mm 3 m/s 755 mmHg 38%
    23:00 +18°C° 0 mm 2 m/s 755 mmHg 35%

    Amanhã, 24 Outubro, Quarta-feira

    Tempo Temperatura Precipitação Vento Pressão Humidade
    00:00 +18°C° 0 mm 2 m/s 754 mmHg 32%
    01:00 +18°C° 0 mm 2 m/s 754 mmHg 31%
    02:00 +18°C° 0 mm 2 m/s 754 mmHg 30%
    03:00 +18°C° 0 mm 2 m/s 753 mmHg 28%
    04:00 +18°C° 0 mm 2 m/s 753 mmHg 28%
    05:00 +18°C° 0 mm 2 m/s 753 mmHg 27%
    06:00 +18°C° 0 mm 2 m/s 753 mmHg 26%
    07:00 +21°C° 0 mm 2 m/s 753 mmHg 25%
    08:00 +25°C° 0 mm 2 m/s 753 mmHg 24%
    09:00 +27°C° 0 mm 1 m/s 753 mmHg 23%
    10:00 +28°C° 0 mm 2 m/s 753 mmHg 24%
    11:00 +29°C° 0 mm 2 m/s 752 mmHg 24%
    12:00 +30°C° 0 mm 3 m/s 752 mmHg 24%
    13:00 +29°C° 0 mm 3 m/s 752 mmHg 28%
    14:00 +28°C° 0 mm 3 m/s 751 mmHg 31%
    15:00 +28°C° 0 mm 3 m/s 751 mmHg 35%
    16:00 +26°C° 0 mm 3 m/s 751 mmHg 39%
    17:00 +24°C° 0 mm 3 m/s 751 mmHg 42%
    18:00 +21°C° 0 mm 3 m/s 751 mmHg 46%
    19:00 +21°C° 0 mm 3 m/s 752 mmHg 45%
    20:00 +21°C° 0 mm 3 m/s 752 mmHg 43%
    21:00 +20°C° 0 mm 2 m/s 752 mmHg 41%
    22:00 +20°C° 0 mm 2 m/s 752 mmHg 41%
    23:00 +20°C° 0 mm 2 m/s 752 mmHg 40%

    Depois de amanhã, 25 Outubro, Quinta-feira

    Tempo Temperatura Precipitação Vento Pressão Humidade
    00:00 +20°C° 0 mm 2 m/s 753 mmHg 40%
    01:00 +20°C° 0 mm 2 m/s 753 mmHg 40%
    02:00 +19°C° 0 mm 2 m/s 753 mmHg 41%
    03:00 +19°C° 0 mm 2 m/s 753 mmHg 41%
    04:00 +19°C° 0 mm 2 m/s 753 mmHg 41%
    05:00 +19°C° 0 mm 2 m/s 753 mmHg 41%
    06:00 +19°C° 0 mm 2 m/s 753 mmHg 41%
    07:00 +21°C° 0 mm 2 m/s 753 mmHg 39%
    08:00 +24°C° 0 mm 1 m/s 754 mmHg 36%
    09:00 +26°C° 0 mm 1 m/s 754 mmHg 33%
    10:00 +27°C° 0 mm 2 m/s 754 mmHg 35%
    11:00 +27°C° 0 mm 2 m/s 754 mmHg 36%
    12:00 +27°C° 0 mm 3 m/s 753 mmHg 38%
    13:00 +27°C° 0 mm 3 m/s 753 mmHg 43%
    14:00 +26°C° 0 mm 3 m/s 753 mmHg 49%
    15:00 +25°C° 0 mm 3 m/s 752 mmHg 54%
    16:00 +23°C° 0 mm 2 m/s 752 mmHg 63%
    17:00 +20°C° 0 mm 2 m/s 752 mmHg 71%
    18:00 +18°C° 0 mm 2 m/s 752 mmHg 80%
    19:00 +18°C° 0 mm 2 m/s 752 mmHg 79%
    20:00 +18°C° 0 mm 2 m/s 753 mmHg 78%
    21:00 +17°C° 0 mm 2 m/s 753 mmHg 77%
    22:00 +17°C° 0 mm 2 m/s 753 mmHg 77%
    23:00 +18°C° 0 mm 1 m/s 752 mmHg 78%

    26 Outubro, Sexta-feira

    Tempo Temperatura Precipitação Vento Pressão Humidade
    00:00 +18°C° 0 mm 1 m/s 752 mmHg 78%
    01:00 +18°C° 0 mm 1 m/s 752 mmHg 78%
    02:00 +16°C° 0 mm 1 m/s 752 mmHg 78%
    03:00 +16°C° 0 mm 1 m/s 751 mmHg 77%
    04:00 +16°C° 0 mm 2 m/s 751 mmHg 77%
    05:00 +16°C° 0 mm 2 m/s 751 mmHg 76%
    06:00 +14°C° 0 mm 3 m/s 751 mmHg 76%
    07:00 +17°C° 0 mm 3 m/s 751 mmHg 69%
    08:00 +20°C° 0 mm 3 m/s 751 mmHg 63%
    09:00 +22°C° 0 mm 3 m/s 751 mmHg 57%
    10:00 +22°C° 0 mm 4 m/s 751 mmHg 54%
    11:00 +23°C° 0 mm 4 m/s 751 mmHg 52%
    12:00 +25°C° 0 mm 4 m/s 750 mmHg 49%
    13:00 +23°C° 0 mm 5 m/s 750 mmHg 51%
    14:00 +23°C° 0 mm 5 m/s 750 mmHg 53%
    15:00 +22°C° 0 mm 5 m/s 749 mmHg 54%
    16:00 +20°C° 0 mm 5 m/s 749 mmHg 62%
    17:00 +19°C° 0 mm 5 m/s 749 mmHg 70%
    18:00 +17°C° 0 mm 4 m/s 749 mmHg 78%
    19:00 +17°C° 0 mm 4 m/s 749 mmHg 76%
    20:00 +15°C° 0 mm 4 m/s 749 mmHg 75%
    21:00 +15°C° 0 mm 4 m/s 749 mmHg 74%
    22:00 +15°C° 0 mm 4 m/s 749 mmHg 72%
    23:00 +15°C° 0 mm 4 m/s 749 mmHg 70%

    27 Outubro, Sábado

    Tempo Temperatura Precipitação Vento Pressão Humidade
    00:00 +15°C° 0 mm 4 m/s 748 mmHg 68%
    01:00 +15°C° 0.1 mm 4 m/s 748 mmHg 67%
    02:00 +15°C° 0.1 mm 4 m/s 747 mmHg 66%
    03:00 +15°C° 0.1 mm 4 m/s 747 mmHg 65%
    04:00 +15°C° 0.2 mm 4 m/s 746 mmHg 67%
    05:00 +15°C° 0.2 mm 4 m/s 746 mmHg 68%
    06:00 +15°C° 0.2 mm 4 m/s 745 mmHg 70%
    07:00 +17°C° 0.1 mm 4 m/s 745 mmHg 67%
    08:00 +17°C° 0.1 mm 5 m/s 745 mmHg 64%
    09:00 +19°C° 0.1 mm 5 m/s 745 mmHg 61%
    10:00 +20°C° 0.2 mm 5 m/s 744 mmHg 60%
    11:00 +20°C° 0.2 mm 6 m/s 744 mmHg 59%
    12:00 +21°C° 0.2 mm 6 m/s 743 mmHg 59%
    13:00 +20°C° 0.3 mm 6 m/s 742 mmHg 66%
    14:00 +19°C° 0.3 mm 6 m/s 742 mmHg 72%
    15:00 +17°C° 0.3 mm 6 m/s 741 mmHg 79%
    16:00 +16°C° 0.6 mm 6 m/s 741 mmHg 82%
    17:00 +16°C° 0.6 mm 5 m/s 740 mmHg 86%
    18:00 +15°C° 0.6 mm 5 m/s 740 mmHg 89%
    19:00 +15°C° 0.3 mm 5 m/s 740 mmHg 88%
    20:00 +14°C° 0.3 mm 5 m/s 739 mmHg 88%
    21:00 +14°C° 0.3 mm 5 m/s 739 mmHg 87%
    22:00 +14°C° 0 mm 5 m/s 739 mmHg 87%
    23:00 +13°C° 0 mm 5 m/s 739 mmHg 87%

    28 Outubro, Domingo

    Tempo Temperatura Precipitação Vento Pressão Humidade
    00:00 +13°C° 0 mm 5 m/s 739 mmHg 88%
    01:00 +12°C° 0 mm 5 m/s 738 mmHg 87%
    02:00 +12°C° 0 mm 5 m/s 738 mmHg 87%
    03:00 +12°C° 0 mm 5 m/s 738 mmHg 86%
    04:00 +10°C° 0 mm 5 m/s 738 mmHg 85%
    05:00 +10°C° 0 mm 5 m/s 738 mmHg 83%
    06:00 +9°C° 0 mm 5 m/s 738 mmHg 82%
    07:00 +10°C° 0 mm 6 m/s 738 mmHg 72%
    08:00 +11°C° 0 mm 6 m/s 738 mmHg 61%
    09:00 +12°C° 0 mm 7 m/s 738 mmHg 51%
    10:00 +14°C° 0 mm 7 m/s 738 mmHg 44%
    11:00 +14°C° 0 mm 7 m/s 738 mmHg 36%
    12:00 +13°C° 0 mm 8 m/s 737 mmHg 29%
    13:00 +14°C° 0 mm 7 m/s 737 mmHg 32%
    14:00 +12°C° 0 mm 7 m/s 736 mmHg 35%
    15:00 +11°C° 0 mm 7 m/s 736 mmHg 39%
    16:00 +10°C° 0 mm 6 m/s 736 mmHg 45%
    17:00 +8°C° 0 mm 5 m/s 736 mmHg 51%
    18:00 +7°C° 0 mm 4 m/s 736 mmHg 56%
    19:00 +7°C° 0 mm 4 m/s 736 mmHg 61%
    20:00 +6°C° 0 mm 4 m/s 736 mmHg 65%
    21:00 +6°C° 0 mm 4 m/s 736 mmHg 69%
    22:00 +6°C° 0.4 mm 4 m/s 736 mmHg 72%
    23:00 +6°C° 0.4 mm 4 m/s 736 mmHg 75%

    29 Outubro, Segunda-feira

    Tempo Temperatura Precipitação Vento Pressão Humidade
    00:00 +6°C° 0.4 mm 4 m/s 735 mmHg 78%
    01:00 +6°C° 0.5 mm 4 m/s 735 mmHg 77%
    02:00 +6°C° 0.5 mm 4 m/s 735 mmHg 76%
    03:00 +6°C° 0.5 mm 4 m/s 734 mmHg 75%
    04:00 +6°C° 0.6 mm 4 m/s 734 mmHg 74%
    05:00 +6°C° 0.6 mm 5 m/s 734 mmHg 73%
    06:00 +6°C° 0.6 mm 5 m/s 734 mmHg 72%
    07:00 +7°C° 0.6 mm 5 m/s 734 mmHg 69%
    08:00 +8°C° 0.6 mm 5 m/s 734 mmHg 66%
    09:00 +9°C° 0.6 mm 5 m/s 734 mmHg 62%
    10:00 +9°C° 0.6 mm 5 m/s 734 mmHg 61%
    11:00 +10°C° 0.6 mm 5 m/s 734 mmHg 59%
    12:00 +10°C° 0.6 mm 5 m/s 734 mmHg 57%
    13:00 +11°C° 0.1 mm 4 m/s 735 mmHg 57%
    14:00 +12°C° 0.1 mm 4 m/s 735 mmHg 56%
    15:00 +12°C° 0.1 mm 3 m/s 735 mmHg 55%
    16:00 +10°C° 0 mm 3 m/s 736 mmHg 58%
    17:00 +9°C° 0 mm 3 m/s 737 mmHg 62%
    18:00 +7°C° 0 mm 3 m/s 738 mmHg 66%
    19:00 +7°C° 0 mm 3 m/s 738 mmHg 66%
    20:00 +5°C° 0 mm 3 m/s 739 mmHg 66%
    21:00 +6°C° 0 mm 2 m/s 739 mmHg 67%
    22:00 +6°C° 0 mm 2 m/s 740 mmHg 69%
    23:00 +6°C° 0 mm 2 m/s 740 mmHg 71%
    Mostrar mais